SPACEBEE-70 (48632 NORAD) Tracking and Keplerian Element Data

This shows tracking and keplerian element data for the satellite.

Feedback or suggestion? Click here.




ElementValue
Catalog48632
NameSPACEBEE-70
Epoch Orbit4006
Epoch Day287.4022967
Epoch Year2021
RAAN341.7411
Inclination97.245
Eccentricity0.0016681
Argument of Perigee44.3275
Mean Anonmoly315.9291
Mean Motion15.15438139
Decay Rate5.209E-05
L11 48632U 21006EY 21287.40229670 .00005209 00000-0 27794-3 0 9990
L22 48632 97.2450 341.7411 0016681 44.3275 315.9291 15.15438139 40060

Live tracking and technical data element details for SPACEBEE-70 (NORAD 48632). SPACEBEE-70 can be tracked NOW for your location showing map with azimuth and elevation plus other details from your city location.

Track the satellite on the map from your city or location and see movement details for azimuth, elevation, latitude, longitude, range, height, and movement on the map or in text.







IsCatalogInMostPopularTable: catalog: 48632, numindb: 50
Update: records affected: 1



GetName: 48632 SPACEBEE-70

Hit Count: updated at: Tue, 19 Oct 2021 08:59:03 GMT